Weather Roundup
Issued by NWS

Home | Current Version | Previous Version | Text Only | Print | Product List | Glossary On
Versions: 1 2 3 4 5 6 7 8 9 10 11 12 13 14 15 16 17 18 19 20 21 22 23 24 25 26 27 28 29 30 31 32 33 34 35 36 37 38 39 40 41 42 43 44 45 46 47 48 49 50
000
NZUS93 KARX 050659
HRRWXR

CURRENT HOURLY OBSERVATIONS ACROSS
MUCH OF THE UPPER MISSISSIPPI VALLEY
NATIONAL WEATHER SERVICE LA CROSSE WI
100 AM CST THU MAR 05 2015


...SOUTHEAST MINNESOTA...


CITY           SKY/WX    TMP DP  RH WIND       PRES   REMARKS
ROCHESTER      CLEAR     -6 -13  71 NW10      30.39R WCI -24
ROCHESTER/MAYO FAIR      -1  -9  69 W7        30.40R WCI -15
WINONA         CLEAR      3  -8  60 CALM      30.46R
AUSTIN         CLEAR     -4  -9  77 NW6       30.41R WCI -16
ALBERT LEA     CLEAR     -4  -9  77 W3        30.41R
DODGE CENTER   PTCLDY    -4 -11  71 W7        30.38R WCI -18
PRESTON        CLEAR     -7 -14  72 NW5       30.40R WCI -18
OWATONNA       CLEAR     -4 -11  71 W7        30.41S WCI -18
FARIBAULT      CLEAR     -6 -11  77 W6        30.42S WCI -18
$$

...ELSEWHERE IN MINNESOTA...


CITY           SKY/WX    TMP DP  RH WIND       PRES   REMARKS
MINNEAPOLIS    CLEAR     -3 -13  62 NW8       30.43S WCI -18
INTNL FALLS    CLEAR    -15 -21  74 SW5       30.31R WCI -27
DULUTH         CLEAR    -10 -18  67 W6        30.31R WCI -23
RED WING       CLEAR     -6 -17  59 NW3       30.43R
REDWOOD FALLS  CLEAR     -5 -12  72 W8        30.45F WCI -20
MANKATO        CLEAR     -2  -9  71 NW7       30.43R WCI -16
FAIRMONT       CLEAR     -2 -11  65 NW7       30.41R WCI -16
$$

...SOUTHWEST WISCONSIN...


CITY           SKY/WX    TMP DP  RH WIND       PRES   REMARKS
LA CROSSE      CLEAR      0  -9  65 CALM      30.44R
PRAIRIE DU CHI CLEAR      2  -9  60 W8        30.45R WCI -12
BOSCOBEL       CLEAR      1  -7  68 CALM      30.42F HAZE
LONE ROCK      NOT AVBL
PLATTEVILLE    CLEAR      1  -6  72 W7        30.38R WCI -11
FORT MC COY    CLEAR     -2 -11  65 CALM      30.42R
VIROQUA        FAIR      -1  -9  69 NW3       30.36R
WIS DELLS      NOT AVBL
$$

...ELSEWHERE IN WISCONSIN...


CITY           SKY/WX    TMP DP  RH WIND       PRES   REMARKS
MILWAUKEE      MOCLDY     9  -9  44 NW8       30.37R WCI  -3
MADISON        CLEAR      5  -7  57 NW6       30.37S WCI  -6
GREEN BAY      CLEAR     -4 -13  65 NW5       30.38R WCI -15
EAU CLAIRE     NOT AVBL
BLACK RVR FLS  FAIR     -11 -17  73 CALM      30.41R
MEDFORD        CLEAR     -8 -16  70 W3        30.28R
WAUSAU         FAIR      -5 -14  65 CALM      30.31R
WIS RAPIDS     CLEAR     -5 -14  65 CALM      30.39R
MARSHFIELD     CLEAR     -7 -16  65 W5        30.34R WCI -18
RICE LAKE      CLEAR    -11 -19  68 W3        30.38R
$$

...NORTHEAST IOWA...


CITY           SKY/WX    TMP DP  RH WIND       PRES   REMARKS
DECORAH        CLEAR     -2 -11  65 W3        30.39F
MASON CITY     CLEAR     -9 -13  83 NW8       30.43S WCI -25
CHARLES CITY   CLEAR     -2 -11  65 NW9       30.42F WCI -18
OELWEIN        CLEAR     -6 -13  71 NW8       30.42S WCI -21
$$

...ELSEWHERE IN IOWA...


CITY           SKY/WX    TMP DP  RH WIND       PRES   REMARKS
DES MOINES     PTCLDY     8  -1  66 NW9       30.45F WCI  -5
IOWA CITY      CLEAR      8  -1  66 N12       30.45F WCI  -7
FORT DODGE     CLEAR      0  -8  71 CALM      30.45F
$$

...NORTHERN ILLINOIS...


CITY           SKY/WX    TMP DP  RH WIND       PRES   REMARKS
CHICAGO-OHARE  PTCLDY     9  -4  55 NW12      30.36R WCI  -6
CHICAGO-MIDWAY PTCLDY    13  -1  54 NW10      30.36R WCI   0
MOLINE         CLEAR     11  -1  58 N9        30.42F WCI  -2
ROCKFORD       PTCLDY     5  -5  63 N7        30.40R WCI  -7
PEORIA         MOCLDY    13   0  56 N8        30.39F WCI   2
$$

NOTE: "FAIR" INDICATES FEW OR NO CLOUDS BELOW 12,000 FEET WITH NO
SIGNIFICANT WEATHER AND/OR OBSTRUCTIONS TO VISIBILITY. WIND
SPEEDS ARE IN MILES-PER-HOUR.



USA.gov is the U.S. government's official web portal to all federal, state and local government web resources and services.